Regional Weather Roundup
Issued by NWS

Home | Current Version | Previous Version | Graphics & Text | Print | Product List | Glossary On
Versions: 1 2 3 4 5 6 7 8 9 10 11 12 13 14 15 16 17 18 19 20 21 22 23 24 25 26 27 28 29 30 31 32 33 34 35 36 37 38 39 40 41 42 43 44 45 46 47 48 49 50
000
ASUS44 KMEG 051810
RWRTN
TENNESSEE HOURLY STATE WEATHER ROUNDUP
NATIONAL WEATHER SERVICE MEMPHIS TN
1200 PM CST FRI FEB 05 2016

TNZ002-004-019-021-049-052-054-088>092-051900-
WEST TENNESSEE

CITY           SKY/WX    TMP DP  RH WIND       PRES   REMARKS
MEMPHIS INTL   PTSUNNY   52  19  27 VRB6      30.47F
NWS MEMPHIS      N/A     51 N/A N/A MISG        N/A
JACKSON        CLOUDY    48  20  32 CALM      30.45F
DYERSBURG      MOSUNNY   48  21  34 W12       30.47F
UNION CITY     SUNNY     46  27  46 SW8       30.43F
PARIS          SUNNY     46  21  36 VRB5      30.44S
LEXINGTON      SUNNY     46  19  34 SW5       30.44F
$$

TNZ008-025-027-028-033-062-065-066-051900-
NORTH MIDDLE TENNESSEE

CITY           SKY/WX    TMP DP  RH WIND       PRES   REMARKS
NASHVILLE      CLOUDY    46  15  28 VRB3      30.45F
CLARKSVILLE    SUNNY     45  22  40 SW6       30.43F
SMYRNA         SUNNY     43  18  36 N5        30.46F
COOKEVILLE     SUNNY     41  18  38 NE6       30.41F
CROSSVILLE     SUNNY     39  12  33 N7        30.39F WCI  34
$$

TNZ061-075-076-078-094-096-097-051900-
SOUTH MIDDLE TENNESSEE

CITY           SKY/WX    TMP DP  RH WIND       PRES   REMARKS
FAYETTEVILLE   SUNNY     43  19  39 VRB6      30.43F
TULLAHOMA      SUNNY     41  12  30 VRB6      30.43F
WINCHESTER     SUNNY     43  18  36 NE10      30.44F
MCMINNVILLE    SUNNY     41  18  38 N7        30.43F
COLUMBIA       SUNNY     43  23  45 CALM      30.43F
SHELBYVILLE    SUNNY     45  19  36 N7        30.45F
$$

TNZ017-018-042-046-047-051900-
NORTHEAST TENNESSEE

CITY           SKY/WX    TMP DP  RH WIND       PRES   REMARKS
TRI CITIES     MOSUNNY   39  15  37 N7G29     30.37F WCI  34
$$

TNZ012-013-036-069-073-074-051900-
CENTRAL EAST TENNESSEE

CITY           SKY/WX    TMP DP  RH WIND       PRES   REMARKS
KNOXVILLE      NOT AVBL
OAK RIDGE      SUNNY     43  16  33 MISG      30.43F
GATLINBURG       N/A     37  12  35 VRB6      30.42F WCI  33
MORRISTOWN     CLEAR     37  14  38 E5G13     30.39F WCI  34
$$

TNZ083-085-099-051900-
SOUTHEAST TENNESSEE

CITY           SKY/WX    TMP DP  RH WIND       PRES   REMARKS
CHATTANOOGA    MOSUNNY   44  12  27 N15G21    30.44F
$$

SKY/WX REPORTED AS FAIR MEANS FEW OR NO CLOUDS BELOW
12 THOUSAND FEET.





USA.gov is the U.S. government's official web portal to all federal, state and local government web resources and services.